This is the latest recevied weather packets stored in our database for station/object AD9CI-15. If no packets are shown the sender has not sent any weather packets the latest 10 day(s).
| Time | Temp. | Humidity | Pressure | Rain* | Wind** | Luminosity | Snow |
|---|---|---|---|---|---|---|---|
| 1777640663 | 5.56° C | 68% | 1016.1 hPa | - | - | - | - |
| 1777638743 | 4.44° C | 69% | 1016.1 hPa | - | - | - | - |
| 1777637063 | 3.89° C | 69% | 1015.9 hPa | - | - | - | - |
| 1777635143 | 3.89° C | 67% | 1015.6 hPa | - | - | - | - |
| 1777633463 | 4.44° C | 65% | 1015.1 hPa | - | - | - | - |
| 1777631543 | 4.44° C | 64% | 1015.4 hPa | - | - | - | - |
| 1777629864 | 3.89° C | 64% | 1015 hPa | - | - | - | - |
| 1777627943 | 3.89° C | 64% | 1015.2 hPa | - | - | - | - |
| 1777626262 | 4.44° C | 63% | 1015.1 hPa | - | - | - | - |
| 1777622662 | 4.44° C | 69% | 1014.9 hPa | - | - | - | - |
| 1777620743 | 4.44° C | 69% | 1014.8 hPa | - | - | - | - |
| 1777619062 | 4.44° C | 71% | 1014.9 hPa | - | - | - | - |
| 1777615463 | 5° C | 72% | 1015.2 hPa | - | - | - | - |
| 1777613544 | 5.56° C | 66% | 1015.2 hPa | - | - | - | - |
| 1777611864 | 5.56° C | 66% | 1015.1 hPa | - | - | - | - |
| 1777609944 | 5.56° C | 68% | 1015 hPa | - | - | - | - |
| 1777608264 | 5.56° C | 68% | 1015.1 hPa | - | - | - | - |
| 1777604664 | 5.56° C | 66% | 1015.3 hPa | - | - | - | - |
| 1777602744 | 5.56° C | 67% | 1015.5 hPa | - | - | - | - |
| 1777601063 | 5.56° C | 67% | 1015.1 hPa | - | - | - | - |
| 1777599144 | 5° C | 68% | 1015 hPa | - | - | - | - |
| 1777597464 | 5° C | 68% | 1014.7 hPa | - | - | - | - |
| 1777593863 | 5° C | 69% | 1014.6 hPa | - | - | - | - |
| 1777591944 | 5.56° C | 71% | 1014.9 hPa | - | - | - | - |
| 1777590262 | 5° C | 73% | 1014.8 hPa | - | - | - | - |
* Rain since midnight (hover to see other rain measurements)
** Current wind speed in m/s (hover to see current wind gust speed)